CAPE
nan nan nan nan nan nan nan nan nan nan nan nan nan nan nan nan nan nan nan nan nan nan nan nan nan nan nan nan nan nan 0 1 1 1 2 3 4 4 5 3 3 1 0 0 0 0 1 1 1 1 0 0 nan nan 0 0 0 0 0 1 1 1 1 1 1 1 3 3 3 3 4 3 1 1 3 3 4 4 5 7 7 9 14 17 17 20
nan nan nan nan nan nan nan nan nan nan nan nan nan nan nan nan nan nan nan nan nan nan nan nan nan nan nan nan nan nan nan 0 1 1 1 2 4 4 4 4 4 3 1 1 1 1 2 1 1 0 0 nan 0 0 nan 0 0 0 0 0 0 0 0 1 1 1 1 1 1 1 1 1 1 1 1 2 5 5 8 12 12 15 20 23 23 24
nan nan nan nan nan nan nan nan nan nan nan nan nan nan nan nan nan nan nan nan nan nan nan nan nan nan nan nan nan nan nan 0 1 1 1 1 2 2 3 3 3 3 3 3 3 3 3 2 2 1 0 0 0 0 nan nan nan nan nan nan nan nan nan nan nan nan nan nan nan nan nan nan nan nan 0 0 3 3 6 12 12 14 18 20 20 26
nan nan nan nan nan nan nan nan nan nan nan nan nan nan nan nan nan nan nan nan nan nan nan nan nan nan nan nan nan nan nan nan nan nan 0 0 1 1 2 2 2 4 3 3 3 4 4 3 3 1 0 0 0 0 0 0 0 nan nan nan nan nan nan nan nan nan nan nan nan nan nan nan nan nan nan 0 1 1 3 7 7 11 14 18 18 23
nan nan nan nan nan nan nan nan nan nan nan nan nan nan nan nan nan nan nan nan nan nan nan nan nan nan nan nan nan nan nan nan nan nan nan nan 0 0 1 2 2 3 3 3 3 4 3 3 3 2 1 1 1 1 0 0 0 nan nan nan nan nan nan nan nan nan nan nan nan nan nan nan nan nan nan 0 0 0 1 4 4 7 11 15 15 19
nan nan nan nan nan nan nan nan nan nan nan nan nan nan nan nan nan nan nan nan nan nan nan nan nan nan nan nan nan nan nan nan nan nan nan nan nan nan 1 2 2 3 4 3 3 3 3 2 2 1 1 1 0 0 0 0 0 nan nan nan nan nan nan nan nan nan nan nan nan nan nan nan nan nan nan nan nan nan 0 2 2 4 7 12 12 17
nan nan nan nan nan nan nan nan nan nan nan nan nan nan nan nan nan nan nan nan nan nan nan nan nan nan nan nan nan nan nan nan nan nan nan nan nan nan 0 1 1 2 2 2 2 1 1 0 0 0 0 0 0 0 0 nan nan nan nan nan nan nan nan nan nan nan nan nan nan nan nan nan nan nan nan nan nan nan nan 0 0 2 5 10 10 15
nan nan nan nan nan nan nan nan nan nan nan nan nan nan nan nan nan nan nan nan nan nan nan nan nan nan nan nan nan nan nan nan nan nan nan nan nan nan nan nan nan nan nan nan nan nan nan nan nan nan nan nan nan nan nan nan nan nan nan nan nan nan nan nan nan nan nan nan nan nan nan nan nan nan nan nan nan nan nan nan nan nan 0 3 3 7
nan nan nan nan nan nan nan nan nan nan nan nan nan nan nan nan nan nan nan nan nan nan nan nan nan nan nan nan nan nan nan nan nan nan nan nan nan nan nan nan nan nan nan nan nan nan nan nan nan nan nan nan nan nan nan nan nan nan nan nan nan nan nan nan nan nan nan nan nan nan nan nan nan nan nan nan nan nan nan nan nan nan nan 0 0 3
nan nan nan nan nan nan nan nan nan nan nan nan nan nan nan nan nan nan nan nan nan nan nan nan nan nan nan nan nan nan nan nan nan nan nan nan nan nan nan nan nan nan nan nan nan nan nan nan nan nan nan nan nan nan nan nan nan nan nan nan nan nan nan nan nan nan nan nan nan nan 0 0 0 0 0 nan nan nan nan nan nan nan nan nan nan 0
nan nan nan nan nan nan nan nan nan nan nan nan nan nan nan nan nan nan nan nan nan nan nan nan nan nan nan nan nan nan nan nan nan nan nan nan nan nan nan nan nan nan nan nan nan nan nan nan nan nan nan nan nan nan nan nan nan nan nan nan nan nan nan nan nan nan nan nan 0 0 1 2 2 2 2 1 0 0 nan nan nan nan nan nan nan nan
nan nan nan nan nan nan nan nan nan nan nan nan nan nan nan nan nan nan nan nan nan nan nan nan nan nan nan nan nan nan nan nan nan nan nan nan nan nan nan nan nan nan nan nan nan nan nan nan nan nan nan nan nan nan nan nan nan nan nan nan nan nan nan nan nan 0 0 0 1 1 2 3 2 2 4 3 2 2 0 0 0 nan nan nan nan nan
nan nan nan nan nan nan nan nan nan nan nan nan nan nan nan nan nan nan nan nan nan nan nan nan nan nan nan nan nan nan nan nan nan nan nan nan nan nan nan nan nan nan nan nan nan nan nan nan nan nan nan nan nan nan nan nan nan nan nan nan nan nan nan 0 0 1 1 1 2 2 2 3 4 4 4 4 3 3 2 2 2 1 1 1 1 0
nan nan nan nan nan nan nan nan nan nan nan nan nan nan nan nan nan nan nan nan nan nan nan nan nan nan nan nan nan nan nan nan nan nan nan nan nan nan nan nan nan nan nan nan nan nan nan nan nan nan nan nan nan nan nan nan nan nan nan nan nan nan 1 1 1 2 3 3 3 3 3 3 4 4 4 4 4 4 3 3 3 2 3 2 2 3
nan nan nan nan nan nan nan nan nan nan nan nan nan nan nan nan nan nan nan nan nan nan nan nan nan nan nan nan nan nan nan nan nan nan nan nan nan nan nan nan nan nan nan nan nan nan nan nan nan nan nan nan nan nan nan nan nan nan nan nan nan 0 2 3 3 3 4 4 4 4 5 4 4 4 5 5 4 4 4 3 3 3 3 5 5 6
nan nan nan nan nan nan nan nan nan nan nan nan nan nan nan nan nan nan nan nan nan nan nan nan nan nan nan nan nan nan nan nan nan nan nan nan nan nan nan nan nan nan nan nan nan nan nan nan nan nan nan nan nan nan nan nan nan nan nan 0 0 1 2 3 3 4 5 4 4 4 4 5 5 5 5 6 5 5 5 4 4 4 3 5 5 7
nan nan nan nan nan nan nan nan nan nan nan nan nan nan nan nan nan nan nan nan nan nan nan nan nan nan nan nan nan nan nan nan nan nan nan nan nan nan nan nan nan nan nan nan nan nan nan nan nan nan nan nan nan nan nan nan nan nan nan 0 0 1 2 3 3 3 4 4 4 4 5 5 5 5 6 5 6 6 6 5 5 5 5 6 6 6
nan nan nan nan nan nan nan nan nan nan nan nan nan nan nan nan nan nan nan nan nan nan nan nan nan nan nan nan nan nan nan nan nan nan nan nan nan nan nan nan nan nan nan nan nan nan nan nan nan nan nan nan nan nan nan nan nan nan nan 1 1 1 2 2 2 1 2 4 5 5 5 5 6 6 6 6 6 6 6 6 6 6 5 5 5 7
nan nan nan nan nan nan nan nan nan nan nan nan nan nan nan nan nan nan nan nan nan nan nan nan nan nan nan nan nan nan nan nan nan nan nan nan nan nan nan nan nan nan nan nan nan nan nan nan nan nan nan nan nan nan nan nan nan nan nan 0 0 1 1 0 0 1 2 4 5 5 7 8 8 8 8 7 7 7 7 7 7 7 7 6 6 7
nan nan nan nan nan nan nan nan nan nan nan nan nan nan nan nan nan nan nan nan nan nan nan nan nan nan nan nan nan nan nan nan nan nan nan nan nan nan nan nan nan nan nan nan nan nan nan nan nan nan nan nan nan nan nan nan nan nan nan 0 0 1 0 0 0 0 2 4 6 6 7 8 11 11 13 13 15 15 15 15 15 16 13 11 11 11
nan nan nan nan nan nan nan nan nan nan nan nan nan nan nan nan nan nan nan nan nan nan nan nan nan nan nan nan nan nan nan nan nan nan nan nan nan nan nan nan nan nan nan nan nan nan nan nan nan nan nan nan nan nan nan nan nan nan nan 0 0 0 nan 0 0 1 2 3 4 4 6 7 8 8 7 10 14 14 16 18 18 17 18 16 16 16
nan nan nan nan nan nan nan nan nan nan nan nan nan nan nan nan nan nan nan nan nan nan nan nan nan nan nan nan nan nan nan nan nan nan nan nan nan nan nan nan nan nan nan nan nan nan nan nan nan nan nan nan nan nan nan nan nan nan nan nan nan nan nan 0 0 2 3 3 4 4 4 5 5 5 6 6 8 8 12 15 15 16 19 19 19 22
nan nan nan nan nan nan nan nan nan nan nan nan nan nan nan nan nan nan nan nan nan nan nan nan nan nan nan nan nan nan nan nan nan nan nan nan nan nan nan nan nan nan nan nan nan nan nan nan nan nan nan nan nan nan nan nan nan nan nan nan nan nan 0 1 1 2 3 3 4 4 4 4 4 4 5 4 6 6 6 9 9 11 14 17 17 23
nan nan nan nan nan nan nan nan nan nan nan nan nan nan nan nan nan nan nan nan nan nan nan nan nan nan nan nan nan nan nan nan nan nan nan nan nan nan nan nan nan nan nan nan nan nan nan nan nan nan nan nan nan nan nan nan nan nan nan nan nan nan 1 2 2 2 3 4 4 4 4 4 5 5 4 4 5 5 6 6 6 7 10 13 13 17
nan nan nan nan nan nan nan nan nan nan nan nan nan nan nan nan nan nan nan nan nan nan nan nan nan nan nan nan nan nan nan nan nan nan nan nan nan nan nan nan nan nan nan nan nan nan nan nan nan nan nan nan nan nan nan nan nan nan nan nan nan 0 0 1 1 2 3 4 4 4 5 5 5 5 5 5 5 5 5 5 5 6 8 9 9 11
nan nan nan nan nan nan nan nan nan nan nan nan nan nan nan nan nan nan nan nan nan nan nan nan nan nan nan nan nan nan nan nan nan nan nan nan nan nan nan nan nan nan nan nan nan nan nan nan nan nan nan nan nan nan nan nan nan nan nan nan nan nan nan 0 0 1 2 2 3 3 4 4 5 5 5 5 5 5 5 5 5 6 6 8 8 10
nan nan nan nan nan nan nan nan nan nan nan nan nan nan nan nan nan nan nan nan nan nan nan nan nan nan nan nan nan nan nan nan nan nan nan nan nan nan nan nan nan nan nan nan nan nan nan nan nan nan nan nan nan nan nan nan nan nan nan nan nan nan nan nan nan 0 1 1 2 2 3 4 4 4 5 5 5 5 5 5 5 5 5 5 5 9
nan 0 0 nan nan nan nan 0 nan nan nan nan nan nan nan nan nan nan nan nan nan nan nan nan nan nan nan nan nan nan nan nan nan nan nan nan nan nan nan nan nan nan nan nan nan nan nan nan nan nan nan nan nan nan nan nan nan nan nan nan nan nan nan nan nan nan 0 1 2 2 3 3 4 4 4 5 5 5 6 6 6 5 5 3 3 1
nan nan 0 1 1 1 1 3 5 5 6 5 nan nan nan nan nan nan nan nan nan nan nan nan nan nan nan nan nan nan nan nan nan nan nan nan nan nan nan nan nan nan nan nan nan nan nan nan nan nan nan nan nan nan nan nan nan nan nan nan nan nan nan nan nan nan 0 1 2 2 3 3 3 3 4 5 5 5 5 5 5 5 4 1 1 nan
nan nan nan nan nan nan nan nan nan nan 6 11 14 14 nan nan nan nan nan nan nan nan nan nan nan nan nan nan nan nan nan nan nan nan nan nan nan nan nan nan nan nan nan nan nan nan nan nan nan nan nan nan nan nan nan nan nan nan nan nan nan nan nan nan nan nan 0 1 1 1 2 2 3 3 4 4 5 5 5 5 5 5 1 nan nan nan
nan nan nan nan nan nan nan nan 0 0 nan 6 5 5 nan nan nan nan nan nan nan nan nan nan nan nan nan nan nan nan nan nan nan nan nan nan nan nan nan nan nan nan nan nan nan nan nan nan nan nan nan nan nan nan nan nan nan nan nan nan nan nan nan nan nan nan nan nan 0 0 1 1 2 2 3 3 4 4 5 5 5 5 nan nan nan nan
nan nan nan nan nan nan nan nan nan nan nan nan nan nan nan nan nan nan nan nan nan nan nan nan nan nan nan nan nan nan nan nan nan nan nan nan nan nan nan nan nan nan nan nan nan nan nan nan nan nan nan nan nan nan nan nan nan nan nan nan nan nan nan nan nan nan nan nan nan nan nan nan nan nan 0 1 1 1 2 4 4 3 nan nan nan nan
nan nan nan nan nan nan nan nan nan nan nan nan nan nan nan nan nan nan nan nan nan nan nan nan nan nan nan nan nan nan nan nan nan nan nan nan nan nan nan nan nan nan nan nan nan nan nan nan nan nan nan nan nan nan nan nan nan nan nan nan nan nan nan nan nan nan nan nan nan nan nan nan nan nan nan nan 1 1 2 3 3 4 0 nan nan nan
nan nan nan nan nan nan nan nan nan nan nan nan nan nan nan nan nan nan nan nan nan nan nan nan nan nan nan nan nan nan nan nan nan nan nan nan nan nan nan nan nan nan nan nan nan nan nan nan nan nan nan nan nan nan nan nan nan nan nan nan nan nan nan nan nan nan nan nan nan nan nan nan nan nan nan nan nan nan 1 2 2 5 5 nan nan nan
nan nan nan nan nan nan nan nan nan nan nan nan nan nan nan nan nan nan nan nan nan nan nan nan nan nan nan nan nan nan nan nan nan nan nan nan nan nan nan nan nan nan nan nan nan nan nan nan nan nan nan nan nan nan nan nan nan nan nan nan nan nan nan nan nan nan nan nan nan nan nan nan nan nan nan nan nan nan 1 3 3 4 4 6 6 2
nan nan nan nan nan nan nan nan nan nan nan nan nan nan nan nan nan nan nan nan nan nan nan nan nan nan nan nan nan nan nan nan nan nan nan nan nan nan nan nan nan nan nan nan nan nan nan nan nan nan nan nan nan nan nan nan nan nan nan nan nan nan nan nan nan nan nan nan nan nan nan nan nan nan nan nan nan nan nan nan nan 0 2 3 3 4
nan nan nan nan nan nan nan nan nan nan nan nan nan nan nan nan nan nan nan nan nan nan nan nan nan nan nan nan nan nan nan nan nan nan nan nan nan nan nan nan nan nan nan nan nan nan nan nan nan nan nan nan nan nan nan nan nan nan nan nan nan nan nan nan nan nan nan nan nan nan nan nan nan nan nan nan nan nan nan nan nan nan nan 0 0 1
nan nan nan nan nan nan nan nan nan nan nan nan nan nan nan nan nan nan nan nan nan nan nan nan nan nan nan nan nan nan nan nan nan nan nan nan nan nan nan nan nan nan nan nan nan nan nan nan nan nan nan nan nan nan nan nan nan nan nan nan nan nan nan nan nan nan nan nan nan nan nan nan nan nan nan nan nan nan nan nan nan nan nan nan nan nan
nan nan nan nan nan nan nan nan nan nan nan nan nan nan nan nan nan nan nan nan nan nan nan nan nan nan nan nan nan nan nan nan nan nan nan nan nan nan nan nan nan nan nan nan nan nan nan nan nan nan nan nan nan nan nan nan nan nan nan nan nan nan nan nan nan nan nan nan nan nan nan nan nan nan nan nan nan nan nan nan nan nan nan nan nan nan
nan nan nan nan nan nan nan nan nan nan nan nan nan nan nan nan nan nan nan nan nan nan nan nan nan nan nan nan nan nan nan nan nan nan nan nan nan nan nan nan nan nan nan nan nan nan nan nan nan nan nan nan nan nan nan nan nan nan nan nan nan nan nan nan nan nan nan nan nan nan nan nan nan nan nan nan nan nan nan nan nan nan nan nan nan nan
nan nan nan nan nan nan nan nan nan nan nan nan nan nan nan nan nan nan nan nan nan nan nan nan nan nan nan nan nan nan nan nan nan nan nan nan nan nan nan nan nan nan nan nan nan nan nan nan nan nan nan nan nan nan nan nan nan nan 1 nan nan nan nan nan nan nan nan nan nan nan nan nan nan nan nan nan nan nan nan nan nan nan nan nan nan nan
nan nan nan nan nan nan nan nan nan nan nan nan nan nan nan nan nan nan nan nan nan nan nan nan nan nan nan nan nan nan nan nan nan nan nan nan nan nan nan nan nan nan nan nan nan nan nan nan nan nan nan nan nan nan nan nan nan nan 0 nan nan nan nan nan nan nan nan nan nan nan nan nan nan nan nan nan nan nan nan nan nan nan nan nan nan nan
nan nan nan nan nan nan nan nan nan nan nan nan nan nan nan nan nan nan nan nan nan nan nan nan nan nan nan nan nan nan nan nan nan nan nan nan nan nan nan nan nan nan nan nan nan nan nan nan nan nan nan nan nan nan nan nan nan nan 0 nan nan nan nan nan nan nan nan nan nan nan nan nan nan nan nan nan nan nan nan nan nan nan nan nan nan nan
nan nan nan nan nan nan nan nan nan nan nan nan nan nan nan nan nan nan nan nan nan nan nan nan nan nan nan nan nan nan nan nan nan nan nan nan nan nan nan nan nan nan nan nan nan nan nan nan nan nan nan nan nan nan nan nan nan nan nan nan nan nan nan nan nan nan nan nan nan nan nan nan nan nan nan nan nan nan nan nan nan nan nan nan nan nan
nan nan nan nan nan nan nan nan nan nan nan nan nan nan nan nan nan nan nan nan nan nan nan nan nan nan nan nan nan nan nan nan nan nan nan nan nan nan nan nan nan nan nan nan nan nan nan nan nan nan nan nan nan nan nan nan nan nan nan nan nan nan nan nan nan nan nan nan nan nan nan nan nan nan nan nan nan nan nan nan nan nan nan nan nan nan
nan nan nan nan nan nan nan nan nan nan nan nan nan nan nan nan nan nan nan nan nan nan nan nan nan nan nan nan nan nan nan nan nan nan nan nan nan nan nan nan nan nan nan nan nan nan nan nan nan nan nan nan nan nan nan nan nan nan nan nan nan nan nan nan nan nan nan nan nan nan nan nan nan nan nan nan nan nan nan nan nan nan nan nan nan nan
nan nan nan nan nan nan nan nan nan nan nan nan nan nan nan nan nan nan nan nan nan nan nan nan nan nan nan nan nan nan nan nan nan nan nan nan nan nan nan nan nan nan nan nan nan nan nan nan nan nan nan nan nan nan nan nan nan nan nan nan nan nan nan nan nan nan nan nan nan nan nan nan nan nan nan nan nan nan nan nan nan nan nan nan nan nan
nan nan nan nan nan nan nan nan nan nan nan nan nan nan nan nan nan nan nan nan nan nan nan nan nan nan nan nan nan nan nan nan nan nan nan nan nan nan nan nan nan nan nan nan nan nan nan nan nan nan nan nan nan nan nan nan nan nan nan nan nan nan nan nan nan nan nan nan nan nan nan nan nan nan nan nan nan nan nan nan nan nan nan nan nan nan
nan nan nan nan nan nan nan nan nan nan nan nan nan nan nan nan nan nan nan nan nan nan nan nan nan nan nan nan nan nan nan nan nan nan nan nan nan nan nan nan nan nan nan nan nan nan nan nan nan nan nan nan nan nan nan nan nan nan nan nan nan nan nan nan nan nan nan nan nan nan nan nan nan nan nan nan nan nan nan nan nan nan nan nan nan nan
nan nan nan nan nan nan nan nan nan nan nan nan nan nan nan nan nan nan nan nan nan nan nan nan nan nan nan nan nan nan nan nan nan nan nan nan nan nan nan nan nan nan nan nan nan 1 2 3 3 6 7 1 nan nan nan nan nan nan nan nan nan nan nan nan nan nan nan nan nan nan nan nan nan nan nan nan nan nan nan nan nan nan nan nan nan nan
nan nan nan nan nan nan nan nan nan nan nan nan nan nan nan nan nan nan nan nan nan nan nan nan nan nan nan nan nan nan nan nan nan nan nan nan nan nan nan nan nan nan nan nan nan 0 1 nan nan nan 5 21 4 4 nan nan nan nan nan nan nan nan nan nan nan nan nan nan nan nan nan nan nan nan nan nan nan nan nan nan nan nan nan nan nan nan
CIN
nan nan nan nan nan nan nan nan nan nan nan nan nan nan nan nan nan nan nan nan nan nan nan nan nan nan nan nan nan nan -0 -0 -0 -0 -0 -0 -0 -0 -0 -0 -0 -0 -0 -0 -0 -0 -0 -0 -0 -0 -0 -0 nan nan -0 -0 -0 -0 -0 -0 -0 -0 -0 -0 -0 -0 -0 -0 -0 -0 -0 -0 -0 -0 -0 -0 -0 -0 -0 -0 -0 -0 -0 -0 -0 -0
nan nan nan nan nan nan nan nan nan nan nan nan nan nan nan nan nan nan nan nan nan nan nan nan nan nan nan nan nan nan nan -0 -0 -0 -0 -0 -0 -0 -0 -0 -0 -0 -0 -0 -0 -0 -0 -0 -0 -0 -0 nan -0 -0 nan -0 -0 -0 -0 -0 -0 -0 -0 -0 -0 -0 -0 -0 -0 -0 -0 -0 -0 -0 -0 -0 -0 -0 -0 -0 -0 -0 -0 -0 -0 -0
nan nan nan nan nan nan nan nan nan nan nan nan nan nan nan nan nan nan nan nan nan nan nan nan nan nan nan nan nan nan nan -0 -0 -0 -0 -0 -0 -0 -0 -0 -0 -0 -0 -0 -0 -0 -0 -0 -0 -0 -0 -0 -0 -0 nan nan nan nan nan nan nan nan nan nan nan nan nan nan nan nan nan nan nan nan -0 -0 -0 -0 -0 -0 -0 -0 -0 -0 -0 -0
nan nan nan nan nan nan nan nan nan nan nan nan nan nan nan nan nan nan nan nan nan nan nan nan nan nan nan nan nan nan nan nan nan nan -0 -0 -0 -0 -0 -0 -0 -0 -0 -0 -0 -0 -0 -0 -0 -0 -0 -0 -0 -0 -0 -0 -0 nan nan nan nan nan nan nan nan nan nan nan nan nan nan nan nan nan nan -0 -0 -0 -0 -0 -0 -0 -0 -0 -0 -0
nan nan nan nan nan nan nan nan nan nan nan nan nan nan nan nan nan nan nan nan nan nan nan nan nan nan nan nan nan nan nan nan nan nan nan nan -0 -0 -0 -0 -0 -0 -0 -0 -0 -0 -0 -0 -0 -0 -0 -0 -0 -0 -0 -0 -0 nan nan nan nan nan nan nan nan nan nan nan nan nan nan nan nan nan nan -0 -0 -0 -0 -0 -0 -0 -0 -0 -0 -0
nan nan nan nan nan nan nan nan nan nan nan nan nan nan nan nan nan nan nan nan nan nan nan nan nan nan nan nan nan nan nan nan nan nan nan nan nan nan -0 -0 -0 -0 -0 -0 -0 -0 -0 -0 -0 -0 -0 -0 -0 -0 -0 -0 -0 nan nan nan nan nan nan nan nan nan nan nan nan nan nan nan nan nan nan nan nan nan -0 -0 -0 -0 -0 -0 -0 -0
nan nan nan nan nan nan nan nan nan nan nan nan nan nan nan nan nan nan nan nan nan nan nan nan nan nan nan nan nan nan nan nan nan nan nan nan nan nan -0 -0 -0 -0 -0 -0 -0 -0 -0 -0 -0 -0 -0 -0 -0 -0 -0 nan nan nan nan nan nan nan nan nan nan nan nan nan nan nan nan nan nan nan nan nan nan nan nan -0 -0 -0 -0 -0 -0 -0
nan nan nan nan nan nan nan nan nan nan nan nan nan nan nan nan nan nan nan nan nan nan nan nan nan nan nan nan nan nan nan nan nan nan nan nan nan nan nan nan nan nan nan nan nan nan nan nan nan nan nan nan nan nan nan nan nan nan nan nan nan nan nan nan nan nan nan nan nan nan nan nan nan nan nan nan nan nan nan nan nan nan -0 -0 -0 -0
nan nan nan nan nan nan nan nan nan nan nan nan nan nan nan nan nan nan nan nan nan nan nan nan nan nan nan nan nan nan nan nan nan nan nan nan nan nan nan nan nan nan nan nan nan nan nan nan nan nan nan nan nan nan nan nan nan nan nan nan nan nan nan nan nan nan nan nan nan nan nan nan nan nan nan nan nan nan nan nan nan nan nan -0 -0 -0
nan nan nan nan nan nan nan nan nan nan nan nan nan nan nan nan nan nan nan nan nan nan nan nan nan nan nan nan nan nan nan nan nan nan nan nan nan nan nan nan nan nan nan nan nan nan nan nan nan nan nan nan nan nan nan nan nan nan nan nan nan nan nan nan nan nan nan nan nan nan -0 -0 -0 -0 -0 nan nan nan nan nan nan nan nan nan nan -0
nan nan nan nan nan nan nan nan nan nan nan nan nan nan nan nan nan nan nan nan nan nan nan nan nan nan nan nan nan nan nan nan nan nan nan nan nan nan nan nan nan nan nan nan nan nan nan nan nan nan nan nan nan nan nan nan nan nan nan nan nan nan nan nan nan nan nan nan -0 -0 -0 -0 -0 -0 -0 -0 -0 -0 nan nan nan nan nan nan nan nan
nan nan nan nan nan nan nan nan nan nan nan nan nan nan nan nan nan nan nan nan nan nan nan nan nan nan nan nan nan nan nan nan nan nan nan nan nan nan nan nan nan nan nan nan nan nan nan nan nan nan nan nan nan nan nan nan nan nan nan nan nan nan nan nan nan -0 -0 -0 -0 -0 -0 -0 -0 -0 -0 -0 -0 -0 -0 -0 -0 nan nan nan nan nan
nan nan nan nan nan nan nan nan nan nan nan nan nan nan nan nan nan nan nan nan nan nan nan nan nan nan nan nan nan nan nan nan nan nan nan nan nan nan nan nan nan nan nan nan nan nan nan nan nan nan nan nan nan nan nan nan nan nan nan nan nan nan nan -0 -0 -0 -0 -0 -0 -0 -0 -0 -0 -0 -0 -0 -0 -0 -0 -0 -0 -0 -0 -0 -0 -0
nan nan nan nan nan nan nan nan nan nan nan nan nan nan nan nan nan nan nan nan nan nan nan nan nan nan nan nan nan nan nan nan nan nan nan nan nan nan nan nan nan nan nan nan nan nan nan nan nan nan nan nan nan nan nan nan nan nan nan nan nan nan -0 -0 -0 -0 -0 -0 -0 -0 -0 -0 -0 -0 -0 -0 -0 -0 -0 -0 -0 -0 -0 -0 -0 -0
nan nan nan nan nan nan nan nan nan nan nan nan nan nan nan nan nan nan nan nan nan nan nan nan nan nan nan nan nan nan nan nan nan nan nan nan nan nan nan nan nan nan nan nan nan nan nan nan nan nan nan nan nan nan nan nan nan nan nan nan nan -0 -0 -0 -0 -0 -0 -0 -0 -0 -0 -0 -0 -0 -0 -0 -0 -0 -0 -0 -0 -0 -0 -0 -0 -0
nan nan nan nan nan nan nan nan nan nan nan nan nan nan nan nan nan nan nan nan nan nan nan nan nan nan nan nan nan nan nan nan nan nan nan nan nan nan nan nan nan nan nan nan nan nan nan nan nan nan nan nan nan nan nan nan nan nan nan -0 -0 -0 -0 -0 -0 -0 -0 -0 -0 -0 -0 -0 -0 -0 -0 -0 -0 -0 -0 -0 -0 -0 -0 -0 -0 -0
nan nan nan nan nan nan nan nan nan nan nan nan nan nan nan nan nan nan nan nan nan nan nan nan nan nan nan nan nan nan nan nan nan nan nan nan nan nan nan nan nan nan nan nan nan nan nan nan nan nan nan nan nan nan nan nan nan nan nan -0 -0 -0 -0 -0 -0 -0 -0 -0 -0 -0 -0 -0 -0 -0 -0 -0 -0 -0 -0 -0 -0 -0 -0 -0 -0 -0
nan nan nan nan nan nan nan nan nan nan nan nan nan nan nan nan nan nan nan nan nan nan nan nan nan nan nan nan nan nan nan nan nan nan nan nan nan nan nan nan nan nan nan nan nan nan nan nan nan nan nan nan nan nan nan nan nan nan nan -0 -0 -0 -0 -0 -0 -0 -0 -0 -0 -0 -0 -0 -0 -0 -0 -0 -0 -0 -0 -0 -0 -0 -0 -0 -0 -0
nan nan nan nan nan nan nan nan nan nan nan nan nan nan nan nan nan nan nan nan nan nan nan nan nan nan nan nan nan nan nan nan nan nan nan nan nan nan nan nan nan nan nan nan nan nan nan nan nan nan nan nan nan nan nan nan nan nan nan -0 -0 -0 -0 -0 -0 -0 -0 -0 -0 -0 -0 -0 -0 -0 -0 -0 -0 -0 -0 -0 -0 -0 -0 -0 -0 -0
nan nan nan nan nan nan nan nan nan nan nan nan nan nan nan nan nan nan nan nan nan nan nan nan nan nan nan nan nan nan nan nan nan nan nan nan nan nan nan nan nan nan nan nan nan nan nan nan nan nan nan nan nan nan nan nan nan nan nan -0 -0 -0 -0 -0 -0 -0 -0 -0 -0 -0 -0 -0 -0 -0 -0 -0 -0 -0 -0 -0 -0 -0 -0 -0 -0 -0
nan nan nan nan nan nan nan nan nan nan nan nan nan nan nan nan nan nan nan nan nan nan nan nan nan nan nan nan nan nan nan nan nan nan nan nan nan nan nan nan nan nan nan nan nan nan nan nan nan nan nan nan nan nan nan nan nan nan nan -0 -0 -0 nan -0 -0 -0 -0 -0 -0 -0 -0 -0 -0 -0 -0 -0 -0 -0 -0 -0 -0 -0 -0 -0 -0 -0
nan nan nan nan nan nan nan nan nan nan nan nan nan nan nan nan nan nan nan nan nan nan nan nan nan nan nan nan nan nan nan nan nan nan nan nan nan nan nan nan nan nan nan nan nan nan nan nan nan nan nan nan nan nan nan nan nan nan nan nan nan nan nan -0 -0 -0 -0 -0 -0 -0 -0 -0 -0 -0 -0 -0 -0 -0 -0 -0 -0 -0 -0 -0 -0 -0
nan nan nan nan nan nan nan nan nan nan nan nan nan nan nan nan nan nan nan nan nan nan nan nan nan nan nan nan nan nan nan nan nan nan nan nan nan nan nan nan nan nan nan nan nan nan nan nan nan nan nan nan nan nan nan nan nan nan nan nan nan nan -0 -0 -0 -0 -0 -0 -0 -0 -0 -0 -0 -0 -0 -0 -0 -0 -0 -0 -0 -0 -0 -0 -0 -0
nan nan nan nan nan nan nan nan nan nan nan nan nan nan nan nan nan nan nan nan nan nan nan nan nan nan nan nan nan nan nan nan nan nan nan nan nan nan nan nan nan nan nan nan nan nan nan nan nan nan nan nan nan nan nan nan nan nan nan nan nan nan -0 -0 -0 -0 -0 -0 -0 -0 -0 -0 -0 -0 -0 -0 -0 -0 -0 -0 -0 -0 -0 -0 -0 -0
nan nan nan nan nan nan nan nan nan nan nan nan nan nan nan nan nan nan nan nan nan nan nan nan nan nan nan nan nan nan nan nan nan nan nan nan nan nan nan nan nan nan nan nan nan nan nan nan nan nan nan nan nan nan nan nan nan nan nan nan nan -0 -0 -0 -0 -0 -0 -0 -0 -0 -0 -0 -0 -0 -0 -0 -0 -0 -0 -0 -0 -0 -0 -0 -0 -0
nan nan nan nan nan nan nan nan nan nan nan nan nan nan nan nan nan nan nan nan nan nan nan nan nan nan nan nan nan nan nan nan nan nan nan nan nan nan nan nan nan nan nan nan nan nan nan nan nan nan nan nan nan nan nan nan nan nan nan nan nan nan nan -0 -0 -0 -0 -0 -0 -0 -0 -0 -0 -0 -0 -0 -0 -0 -0 -0 -0 -0 -0 -0 -0 -0
nan nan nan nan nan nan nan nan nan nan nan nan nan nan nan nan nan nan nan nan nan nan nan nan nan nan nan nan nan nan nan nan nan nan nan nan nan nan nan nan nan nan nan nan nan nan nan nan nan nan nan nan nan nan nan nan nan nan nan nan nan nan nan nan nan -0 -0 -0 -0 -0 -0 -0 -0 -0 -0 -0 -0 -0 -0 -0 -0 -0 -0 -0 -0 -0
nan -0 -0 nan nan nan nan -0 nan nan nan nan nan nan nan nan nan nan nan nan nan nan nan nan nan nan nan nan nan nan nan nan nan nan nan nan nan nan nan nan nan nan nan nan nan nan nan nan nan nan nan nan nan nan nan nan nan nan nan nan nan nan nan nan nan nan -0 -0 -0 -0 -0 -0 -0 -0 -0 -0 -0 -0 -0 -0 -0 -0 -0 -0 -0 -18
nan nan -0 -0 -0 -0 -0 -0 -0 -0 -0 -0 nan nan nan nan nan nan nan nan nan nan nan nan nan nan nan nan nan nan nan nan nan nan nan nan nan nan nan nan nan nan nan nan nan nan nan nan nan nan nan nan nan nan nan nan nan nan nan nan nan nan nan nan nan nan -0 -0 -0 -0 -0 -0 -0 -0 -0 -0 -0 -0 -0 -0 -0 -0 -0 -14 -14 nan
nan nan nan nan nan nan nan nan nan nan -0 -0 -0 -0 nan nan nan nan nan nan nan nan nan nan nan nan nan nan nan nan nan nan nan nan nan nan nan nan nan nan nan nan nan nan nan nan nan nan nan nan nan nan nan nan nan nan nan nan nan nan nan nan nan nan nan nan -0 -0 -0 -0 -0 -0 -0 -0 -0 -0 -0 -0 -0 -0 -0 -0 -10 nan nan nan
nan nan nan nan nan nan nan nan -0 -0 nan -0 -0 -0 nan nan nan nan nan nan nan nan nan nan nan nan nan nan nan nan nan nan nan nan nan nan nan nan nan nan nan nan nan nan nan nan nan nan nan nan nan nan nan nan nan nan nan nan nan nan nan nan nan nan nan nan nan nan -0 -0 -0 -0 -0 -0 -0 -0 -0 -0 -0 -0 -0 -0 nan nan nan nan
nan nan nan nan nan nan nan nan nan nan nan nan nan nan nan nan nan nan nan nan nan nan nan nan nan nan nan nan nan nan nan nan nan nan nan nan nan nan nan nan nan nan nan nan nan nan nan nan nan nan nan nan nan nan nan nan nan nan nan nan nan nan nan nan nan nan nan nan nan nan nan nan nan nan -0 -0 -0 -0 -0 -0 -0 -0 nan nan nan nan
nan nan nan nan nan nan nan nan nan nan nan nan nan nan nan nan nan nan nan nan nan nan nan nan nan nan nan nan nan nan nan nan nan nan nan nan nan nan nan nan nan nan nan nan nan nan nan nan nan nan nan nan nan nan nan nan nan nan nan nan nan nan nan nan nan nan nan nan nan nan nan nan nan nan nan nan -0 -0 -0 -0 -0 -0 -11 nan nan nan
nan nan nan nan nan nan nan nan nan nan nan nan nan nan nan nan nan nan nan nan nan nan nan nan nan nan nan nan nan nan nan nan nan nan nan nan nan nan nan nan nan nan nan nan nan nan nan nan nan nan nan nan nan nan nan nan nan nan nan nan nan nan nan nan nan nan nan nan nan nan nan nan nan nan nan nan nan nan -0 -0 -0 -0 -0 nan nan nan
nan nan nan nan nan nan nan nan nan nan nan nan nan nan nan nan nan nan nan nan nan nan nan nan nan nan nan nan nan nan nan nan nan nan nan nan nan nan nan nan nan nan nan nan nan nan nan nan nan nan nan nan nan nan nan nan nan nan nan nan nan nan nan nan nan nan nan nan nan nan nan nan nan nan nan nan nan nan -0 -0 -0 -0 -0 -0 -0 -10
nan nan nan nan nan nan nan nan nan nan nan nan nan nan nan nan nan nan nan nan nan nan nan nan nan nan nan nan nan nan nan nan nan nan nan nan nan nan nan nan nan nan nan nan nan nan nan nan nan nan nan nan nan nan nan nan nan nan nan nan nan nan nan nan nan nan nan nan nan nan nan nan nan nan nan nan nan nan nan nan nan -0 -0 -0 -0 -0
nan nan nan nan nan nan nan nan nan nan nan nan nan nan nan nan nan nan nan nan nan nan nan nan nan nan nan nan nan nan nan nan nan nan nan nan nan nan nan nan nan nan nan nan nan nan nan nan nan nan nan nan nan nan nan nan nan nan nan nan nan nan nan nan nan nan nan nan nan nan nan nan nan nan nan nan nan nan nan nan nan nan nan -0 -0 -0
nan nan nan nan nan nan nan nan nan nan nan nan nan nan nan nan nan nan nan nan nan nan nan nan nan nan nan nan nan nan nan nan nan nan nan nan nan nan nan nan nan nan nan nan nan nan nan nan nan nan nan nan nan nan nan nan nan nan nan nan nan nan nan nan nan nan nan nan nan nan nan nan nan nan nan nan nan nan nan nan nan nan nan nan nan nan
nan nan nan nan nan nan nan nan nan nan nan nan nan nan nan nan nan nan nan nan nan nan nan nan nan nan nan nan nan nan nan nan nan nan nan nan nan nan nan nan nan nan nan nan nan nan nan nan nan nan nan nan nan nan nan nan nan nan nan nan nan nan nan nan nan nan nan nan nan nan nan nan nan nan nan nan nan nan nan nan nan nan nan nan nan nan
nan nan nan nan nan nan nan nan nan nan nan nan nan nan nan nan nan nan nan nan nan nan nan nan nan nan nan nan nan nan nan nan nan nan nan nan nan nan nan nan nan nan nan nan nan nan nan nan nan nan nan nan nan nan nan nan nan nan nan nan nan nan nan nan nan nan nan nan nan nan nan nan nan nan nan nan nan nan nan nan nan nan nan nan nan nan
nan nan nan nan nan nan nan nan nan nan nan nan nan nan nan nan nan nan nan nan nan nan nan nan nan nan nan nan nan nan nan nan nan nan nan nan nan nan nan nan nan nan nan nan nan nan nan nan nan nan nan nan nan nan nan nan nan nan -0 nan nan nan nan nan nan nan nan nan nan nan nan nan nan nan nan nan nan nan nan nan nan nan nan nan nan nan
nan nan nan nan nan nan nan nan nan nan nan nan nan nan nan nan nan nan nan nan nan nan nan nan nan nan nan nan nan nan nan nan nan nan nan nan nan nan nan nan nan nan nan nan nan nan nan nan nan nan nan nan nan nan nan nan nan nan -0 nan nan nan nan nan nan nan nan nan nan nan nan nan nan nan nan nan nan nan nan nan nan nan nan nan nan nan
nan nan nan nan nan nan nan nan nan nan nan nan nan nan nan nan nan nan nan nan nan nan nan nan nan nan nan nan nan nan nan nan nan nan nan nan nan nan nan nan nan nan nan nan nan nan nan nan nan nan nan nan nan nan nan nan nan nan -1 nan nan nan nan nan nan nan nan nan nan nan nan nan nan nan nan nan nan nan nan nan nan nan nan nan nan nan
nan nan nan nan nan nan nan nan nan nan nan nan nan nan nan nan nan nan nan nan nan nan nan nan nan nan nan nan nan nan nan nan nan nan nan nan nan nan nan nan nan nan nan nan nan nan nan nan nan nan nan nan nan nan nan nan nan nan nan nan nan nan nan nan nan nan nan nan nan nan nan nan nan nan nan nan nan nan nan nan nan nan nan nan nan nan
nan nan nan nan nan nan nan nan nan nan nan nan nan nan nan nan nan nan nan nan nan nan nan nan nan nan nan nan nan nan nan nan nan nan nan nan nan nan nan nan nan nan nan nan nan nan nan nan nan nan nan nan nan nan nan nan nan nan nan nan nan nan nan nan nan nan nan nan nan nan nan nan nan nan nan nan nan nan nan nan nan nan nan nan nan nan
nan nan nan nan nan nan nan nan nan nan nan nan nan nan nan nan nan nan nan nan nan nan nan nan nan nan nan nan nan nan nan nan nan nan nan nan nan nan nan nan nan nan nan nan nan nan nan nan nan nan nan nan nan nan nan nan nan nan nan nan nan nan nan nan nan nan nan nan nan nan nan nan nan nan nan nan nan nan nan nan nan nan nan nan nan nan
nan nan nan nan nan nan nan nan nan nan nan nan nan nan nan nan nan nan nan nan nan nan nan nan nan nan nan nan nan nan nan nan nan nan nan nan nan nan nan nan nan nan nan nan nan nan nan nan nan nan nan nan nan nan nan nan nan nan nan nan nan nan nan nan nan nan nan nan nan nan nan nan nan nan nan nan nan nan nan nan nan nan nan nan nan nan
nan nan nan nan nan nan nan nan nan nan nan nan nan nan nan nan nan nan nan nan nan nan nan nan nan nan nan nan nan nan nan nan nan nan nan nan nan nan nan nan nan nan nan nan nan nan nan nan nan nan nan nan nan nan nan nan nan nan nan nan nan nan nan nan nan nan nan nan nan nan nan nan nan nan nan nan nan nan nan nan nan nan nan nan nan nan
nan nan nan nan nan nan nan nan nan nan nan nan nan nan nan nan nan nan nan nan nan nan nan nan nan nan nan nan nan nan nan nan nan nan nan nan nan nan nan nan nan nan nan nan nan nan nan nan nan nan nan nan nan nan nan nan nan nan nan nan nan nan nan nan nan nan nan nan nan nan nan nan nan nan nan nan nan nan nan nan nan nan nan nan nan nan
nan nan nan nan nan nan nan nan nan nan nan nan nan nan nan nan nan nan nan nan nan nan nan nan nan nan nan nan nan nan nan nan nan nan nan nan nan nan nan nan nan nan nan nan nan -4 -4 -1 -1 -0 -0 -2 nan nan nan nan nan nan nan nan nan nan nan nan nan nan nan nan nan nan nan nan nan nan nan nan nan nan nan nan nan nan nan nan nan nan
nan nan nan nan nan nan nan nan nan nan nan nan nan nan nan nan nan nan nan nan nan nan nan nan nan nan nan nan nan nan nan nan nan nan nan nan nan nan nan nan nan nan nan nan nan -7 -6 nan nan nan -2 -0 -0 -0 nan nan nan nan nan nan nan nan nan nan nan nan nan nan nan nan nan nan nan nan nan nan nan nan nan nan nan nan nan nan nan nan
Wind_Speed
2 2 2 2 2 2 1 2 3 3 2 1 1 1 2 2 2 2 2 2 1 1 1 1 2 2 3 4 4 4 4 3 3 3 3 3 3 3 3 4 4 4 4 4 5 5 5 5 5 5 5 5 5 5 5 5 6 6 7 7 7 7 8 8 8 8 8 8 7 7 7 7 7 6 6 6 5 5 5 6 6 6 7 7 8 8
1 1 1 2 2 2 1 1 2 3 3 2 1 0 1 2 2 1 1 1 1 1 1 1 1 2 2 3 3 3 3 3 3 3 3 3 3 3 3 3 3 3 3 3 3 3 4 4 4 4 4 4 4 4 5 5 6 6 7 7 7 7 8 8 8 8 8 8 7 7 7 7 7 6 6 6 6 6 6 6 7 7 7 7 7 8
2 1 1 1 2 2 1 1 1 2 2 2 1 0 1 1 1 1 2 2 2 1 1 1 1 1 2 3 3 2 2 3 3 3 3 3 3 3 3 3 2 2 2 2 2 2 2 3 3 3 3 3 3 4 4 5 5 6 6 6 7 7 7 7 7 7 7 7 7 7 7 7 7 7 7 7 7 7 7 7 8 8 8 8 7 7
2 2 1 1 1 1 1 1 1 1 2 2 1 1 1 1 1 1 1 2 2 2 2 2 2 1 1 3 3 2 2 3 3 3 3 3 2 2 2 2 2 1 1 1 1 1 2 2 2 2 2 2 3 3 4 4 4 5 5 5 6 6 6 7 7 7 7 7 7 7 7 7 7 7 7 7 8 8 8 8 8 8 8 8 8 8
2 2 1 1 1 1 0 0 1 1 2 2 2 2 1 1 1 1 2 2 2 2 2 2 2 2 2 2 3 2 2 3 3 3 3 2 2 2 2 2 2 1 1 1 1 2 2 2 2 2 2 2 2 2 3 3 3 4 4 5 5 6 6 6 7 7 7 7 7 7 8 8 8 8 8 8 8 8 8 8 9 9 9 9 8 8
1 1 1 1 1 1 0 0 1 1 2 2 2 2 1 1 1 1 2 2 2 2 2 2 2 2 2 3 3 3 2 3 3 3 2 2 2 2 2 2 2 1 1 1 2 2 2 2 1 1 1 1 2 2 2 2 3 3 4 4 5 5 6 6 7 7 7 7 8 8 8 8 8 8 8 8 8 8 8 9 9 9 9 9 9 9
1 0 1 1 1 1 1 1 1 1 1 1 1 1 1 1 1 1 1 1 2 2 2 2 2 2 3 3 4 5 3 3 2 2 2 2 2 2 2 2 2 2 1 1 1 1 1 1 1 2 2 3 3 3 3 3 4 4 4 4 5 5 6 6 7 7 7 8 8 8 8 8 8 8 8 8 9 9 9 9 9 9 9 9 9 9
2 1 1 1 1 1 1 1 1 1 1 1 1 1 1 1 1 1 1 1 2 2 2 2 2 2 3 3 4 4 4 3 3 3 3 3 3 2 2 2 2 2 2 2 2 2 2 2 2 3 3 3 4 4 4 4 4 4 4 4 5 5 6 6 6 7 7 8 8 8 8 8 8 8 8 8 8 8 9 9 9 9 9 9 10 10
3 2 1 1 1 1 1 1 1 1 1 1 1 1 1 1 1 2 2 2 2 2 2 2 2 2 3 3 4 4 4 3 2 2 3 3 3 3 3 4 4 3 3 3 3 2 2 2 3 3 3 4 4 4 4 4 4 4 4 4 4 5 5 6 6 7 7 8 8 8 8 8 8 8 8 8 8 8 8 8 9 9 9 10 10 10
3 3 2 1 1 1 1 1 0 1 1 1 1 1 2 1 1 1 2 2 2 2 2 2 2 1 3 3 4 4 4 4 3 4 5 4 4 4 4 5 5 4 4 4 3 3 3 3 3 3 3 4 4 4 4 4 4 4 4 4 4 5 5 6 7 7 8 8 8 8 8 7 7 7 7 7 7 7 7 8 8 8 9 9 10 10
2 2 2 1 1 1 1 1 0 1 1 2 2 2 2 1 1 2 1 0 1 2 2 2 2 1 2 3 4 4 4 3 4 4 6 6 6 6 6 6 6 6 6 5 4 4 3 2 2 3 4 4 5 5 5 5 4 4 4 4 4 5 6 6 7 7 8 8 8 8 8 7 7 7 7 7 7 7 7 7 7 8 8 9 9 10
2 2 1 1 1 1 1 1 1 1 2 2 2 1 2 1 1 2 3 2 0 1 2 2 2 1 1 2 3 3 3 2 2 3 4 4 5 5 5 5 6 6 6 6 5 5 4 3 3 3 4 4 4 5 5 4 4 4 4 4 5 5 6 6 7 7 7 8 8 7 7 7 7 7 7 7 6 6 6 6 6 7 7 8 8 9
2 1 1 1 1 1 1 1 1 1 1 1 1 1 1 1 0 1 2 1 1 0 1 1 1 1 1 1 1 2 2 2 2 2 2 3 3 3 3 3 3 4 4 4 4 4 4 4 4 4 4 4 4 4 5 4 4 5 5 5 5 5 6 6 7 7 7 7 7 7 7 7 7 7 7 7 6 6 6 6 6 6 6 7 7 8
2 1 2 1 1 1 1 1 1 1 1 1 1 2 1 1 1 1 2 1 1 1 1 1 1 2 2 1 1 1 1 1 1 2 2 2 2 2 2 2 2 2 2 2 3 3 3 3 3 3 4 3 3 3 4 4 5 5 5 5 5 5 6 6 6 7 7 7 7 7 7 7 7 7 7 7 6 6 6 6 6 6 6 6 7 7
2 2 2 2 1 1 1 1 2 2 2 1 1 1 1 1 1 1 2 1 1 1 2 2 2 2 2 2 1 1 1 1 2 2 2 2 2 1 1 1 2 2 2 2 2 2 2 2 2 2 2 2 2 3 4 4 5 5 5 5 5 5 6 6 6 6 6 7 7 7 7 7 7 7 7 7 6 6 6 6 6 6 6 6 7 7
2 2 3 2 2 1 1 1 2 2 1 1 1 1 2 1 1 1 2 1 1 1 2 2 2 2 3 2 1 1 1 2 2 2 2 2 2 1 1 1 1 2 2 1 2 2 2 1 1 1 2 3 4 4 5 4 4 5 5 5 5 5 5 6 6 6 6 6 7 7 7 7 7 7 7 7 6 6 6 6 6 6 6 7 7 7
2 2 2 2 2 1 1 1 1 1 1 1 1 1 2 2 1 2 2 2 1 1 2 2 1 0 2 2 2 1 1 2 2 2 1 2 2 1 1 1 0 1 2 2 2 2 2 2 1 2 2 4 5 5 5 5 5 5 5 5 5 5 5 5 5 6 6 6 6 6 6 6 6 6 6 6 6 6 6 6 6 6 6 7 7 7
1 2 2 2 2 2 1 1 1 1 1 1 1 1 1 1 1 2 2 2 2 2 1 2 1 1 1 2 2 2 1 2 2 2 1 2 2 2 1 1 0 1 2 2 2 2 2 2 2 2 4 5 6 5 5 5 5 5 5 5 5 5 5 5 5 6 6 6 6 6 6 6 6 6 6 6 6 6 6 7 7 7 7 7 7 7
2 2 2 2 2 2 1 1 2 2 2 2 2 2 1 1 1 2 2 2 2 2 2 2 1 2 2 2 2 2 0 2 2 1 1 2 2 2 2 1 0 0 1 2 2 2 2 2 3 4 6 6 6 6 6 5 5 5 5 4 4 4 4 5 5 5 6 6 6 5 5 5 5 5 5 5 5 6 6 6 7 7 7 7 7 7
2 2 2 3 3 2 1 2 3 3 4 3 3 3 3 2 1 1 1 1 1 1 2 2 2 2 2 3 3 2 1 2 2 1 0 2 2 2 2 1 1 1 2 3 3 2 1 2 3 4 6 6 6 6 6 6 6 5 4 4 3 3 4 4 4 5 5 5 5 5 5 5 5 6 6 5 5 5 6 6 6 7 7 6 6 7
2 2 3 3 3 3 2 3 3 3 4 4 4 4 3 2 2 1 1 1 1 1 1 2 2 2 3 3 3 2 1 2 2 1 0 1 2 2 1 1 1 1 2 2 2 2 1 2 2 3 5 6 6 6 6 6 5 5 4 3 3 3 3 4 4 4 4 4 4 4 5 5 5 6 6 6 6 6 6 7 7 7 6 6 6 6
3 3 3 3 3 3 3 3 3 4 4 5 4 4 3 3 2 2 2 2 2 2 2 3 3 2 2 2 2 2 1 2 2 2 1 1 2 2 1 0 1 0 1 2 2 2 1 2 2 3 4 6 6 6 6 6 5 4 3 2 2 3 3 3 4 4 4 4 4 4 5 5 5 6 6 6 6 7 7 7 7 7 7 7 6 6
3 3 3 3 3 2 2 3 3 3 3 4 4 4 3 4 4 4 3 3 3 3 2 2 1 1 1 2 2 1 0 1 2 2 2 0 2 3 2 1 1 0 2 3 2 2 2 2 2 3 4 6 6 6 6 5 4 3 2 2 2 3 4 4 4 4 5 5 5 5 5 5 5 6 6 6 6 7 7 7 7 7 7 7 7 7
3 3 3 3 3 2 2 3 3 3 2 2 2 2 2 3 3 3 3 3 3 2 2 1 1 2 2 2 2 1 1 0 1 2 2 1 2 2 1 1 1 1 2 2 2 2 2 2 2 2 2 5 6 6 5 4 3 2 2 2 3 4 5 5 5 5 5 5 5 5 6 6 6 6 6 6 6 7 7 7 7 7 8 8 8 8
3 3 3 3 4 4 4 4 4 4 3 3 3 3 3 4 4 4 3 3 3 2 3 3 3 2 3 2 2 2 2 1 1 2 2 1 1 2 2 0 0 1 2 2 2 1 2 2 2 2 2 4 5 5 4 3 2 2 2 3 4 5 6 6 6 6 6 6 6 6 6 6 6 6 6 6 7 7 7 7 7 8 8 8 8 8
5 5 5 6 7 7 8 8 7 7 7 5 4 4 4 4 4 4 3 2 2 3 3 3 2 2 2 2 2 3 2 1 0 2 2 1 1 2 2 0 0 1 2 2 2 1 1 2 2 3 2 3 4 5 4 4 4 4 5 5 6 7 7 7 7 7 7 6 6 6 6 6 6 6 6 7 7 7 7 7 7 8 8 8 8 8
8 9 9 9 9 10 10 10 10 10 10 9 8 6 5 4 4 3 2 1 1 3 3 2 0 1 2 2 2 3 2 1 0 1 2 2 1 1 2 0 0 1 2 2 2 1 1 2 2 3 3 3 3 4 6 6 6 7 7 7 8 8 8 8 8 7 7 6 6 6 6 6 6 6 7 7 7 7 7 7 7 8 8 7 6 6
7 8 8 8 8 8 8 8 8 9 10 10 11 10 7 5 4 3 2 2 2 3 3 2 1 1 1 2 2 2 2 1 1 1 2 2 1 1 2 1 0 0 1 2 2 2 2 2 2 2 3 3 3 3 5 7 7 8 8 8 8 8 8 8 7 7 7 6 6 6 6 6 6 7 7 7 7 7 7 7 7 7 7 5 3 2
5 5 4 4 3 3 2 2 3 4 7 9 10 10 7 4 4 3 3 3 3 3 2 2 2 2 1 1 2 2 2 2 1 1 2 2 0 1 2 1 1 0 0 1 2 2 3 2 2 2 2 3 3 3 3 5 5 6 7 8 8 8 8 7 7 7 7 7 6 6 6 6 7 7 7 7 7 8 7 7 7 6 5 3 1 0
5 5 5 6 6 6 5 4 3 2 2 4 6 6 5 4 4 4 3 4 4 3 3 2 2 2 1 0 1 2 3 3 2 1 2 2 1 1 1 1 1 1 1 1 2 2 3 3 2 2 2 2 3 2 2 2 3 3 4 5 6 7 7 7 7 7 7 7 7 7 7 7 7 8 8 8 8 8 8 7 7 5 2 1 0 0
3 4 4 4 4 4 4 4 4 4 3 2 1 1 2 3 3 4 4 4 4 4 3 3 3 2 2 1 0 1 2 3 2 1 3 2 1 1 0 0 1 1 0 1 1 1 2 3 3 2 2 2 2 2 2 2 1 1 2 3 3 4 6 7 7 8 8 8 8 8 8 8 8 8 8 8 8 8 8 7 6 4 1 0 1 1
2 2 2 2 3 3 3 3 3 3 3 3 3 3 2 2 3 3 4 4 4 4 4 3 3 3 3 2 2 2 2 3 2 2 3 2 1 0 1 0 0 1 1 1 2 2 1 2 2 3 2 2 2 2 2 1 1 1 1 1 2 3 5 6 6 7 7 7 8 8 8 8 8 8 8 8 8 8 8 7 6 4 1 1 1 2
2 1 2 2 2 2 3 3 3 2 2 2 2 1 1 1 2 3 4 4 4 4 4 4 3 3 2 2 2 2 3 3 3 3 3 2 1 0 0 1 1 1 1 1 1 2 1 1 2 2 2 2 2 2 2 2 1 1 1 1 1 2 4 4 4 5 5 6 6 7 8 8 8 8 8 8 8 8 7 7 7 5 2 1 2 2
2 2 2 2 2 2 2 2 2 2 2 1 1 1 0 0 1 2 3 3 4 4 4 4 4 3 3 2 2 2 3 3 3 3 3 3 2 1 1 1 1 1 1 1 1 1 0 1 1 2 2 2 2 2 2 2 1 1 0 0 1 2 3 3 3 3 4 4 4 4 5 6 6 7 8 8 8 8 8 8 8 7 6 3 2 2
2 2 2 2 2 2 2 2 2 2 2 2 1 1 1 1 1 2 2 3 3 3 4 4 4 4 4 3 3 3 3 3 3 2 3 3 3 2 1 1 2 2 1 1 1 1 0 1 1 1 2 2 3 2 2 2 1 1 1 1 2 2 2 2 2 2 3 3 3 3 3 3 4 5 6 7 7 8 8 8 8 8 8 6 5 3
2 2 2 2 2 2 2 2 2 2 2 2 2 2 1 1 2 2 2 2 3 3 3 3 3 4 4 4 4 4 4 3 3 3 3 3 3 2 1 2 2 2 2 1 1 1 0 1 1 1 2 2 3 3 2 2 1 1 1 1 2 2 3 2 1 1 1 2 2 3 3 3 3 3 4 6 8 8 9 9 9 9 9 8 7 6
1 1 1 1 1 1 1 1 2 2 2 2 2 1 1 1 1 1 1 1 2 2 2 2 2 2 3 3 4 4 3 3 3 3 3 3 3 3 2 2 2 3 3 2 2 1 1 1 1 2 2 2 2 2 2 2 2 2 2 2 2 2 3 2 1 1 1 2 2 3 3 3 3 3 4 6 7 8 8 9 9 9 9 9 8 8
1 1 1 1 1 1 1 1 2 2 2 2 1 1 1 1 1 1 1 1 1 1 1 1 2 2 3 3 3 3 2 2 2 3 3 3 3 3 2 2 2 2 3 3 2 2 1 1 1 2 2 2 3 3 3 2 2 2 2 2 2 2 2 2 1 1 1 2 3 4 4 3 2 2 3 4 4 4 5 5 6 7 8 8 8 8
0 1 2 1 1 1 2 2 2 2 2 1 1 1 1 0 0 0 0 1 1 1 1 1 1 1 2 2 3 3 2 2 3 3 3 3 3 3 3 2 2 2 3 2 2 2 2 2 2 2 2 2 3 3 2 2 2 2 3 3 2 2 2 1 1 1 2 2 3 4 4 3 2 2 2 2 2 3 3 3 4 4 4 4 5 7
1 1 2 2 2 2 3 3 2 2 1 1 1 1 0 1 1 1 1 1 1 1 0 0 0 1 1 2 2 3 3 2 3 4 3 3 3 3 3 3 3 3 3 2 2 2 3 2 2 2 2 2 3 3 3 2 2 3 4 3 3 2 2 2 2 2 1 1 2 2 2 2 2 2 2 2 2 2 2 3 3 3 2 2 2 3
2 2 2 2 2 2 2 2 1 1 0 0 1 1 1 1 1 1 1 1 1 1 1 1 1 1 2 2 2 2 2 2 3 4 3 4 4 4 3 3 3 3 3 2 2 2 3 3 3 3 3 3 4 4 4 3 4 5 6 4 3 3 4 3 2 1 1 1 1 1 2 2 3 3 3 3 3 3 3 3 3 3 3 2 1 1
3 3 3 2 2 1 1 1 0 0 1 1 1 1 0 0 1 1 1 1 1 1 2 2 2 2 3 3 3 2 2 2 2 3 4 4 5 4 4 4 3 3 3 3 2 3 3 3 3 4 3 3 3 4 4 4 4 5 5 4 4 4 6 4 2 1 0 1 1 1 2 2 2 3 3 4 4 4 4 3 4 4 4 2 2 3
4 3 3 2 1 1 0 0 0 0 1 1 0 0 1 1 1 1 1 0 0 1 1 2 2 1 1 2 3 3 2 2 2 2 3 4 5 5 5 4 4 4 3 3 3 3 3 4 4 4 3 2 3 4 5 5 5 5 5 4 3 3 3 3 2 1 1 1 1 2 2 2 3 3 3 4 4 4 4 4 5 6 5 3 3 3
3 3 2 1 1 1 1 1 1 1 1 1 1 1 1 1 1 2 2 1 1 0 0 1 2 2 1 1 2 3 3 3 2 2 2 4 5 5 5 5 4 4 4 3 3 3 2 3 4 3 3 2 3 4 5 5 4 4 3 4 4 4 3 3 2 2 2 2 2 2 2 2 2 3 3 3 3 3 3 3 3 4 5 4 4 4
2 2 1 1 1 1 1 2 2 1 1 2 2 2 1 1 2 2 2 2 1 1 1 1 1 1 0 1 1 2 3 3 3 3 2 2 4 5 4 4 4 4 4 4 4 3 3 3 3 3 2 3 3 4 5 5 5 4 4 4 5 5 5 4 3 3 4 4 4 4 3 2 2 2 3 3 3 3 3 3 3 4 4 4 4 4
2 2 2 2 2 2 2 2 2 2 1 2 2 2 2 2 2 2 2 2 2 1 1 2 2 1 1 1 1 1 1 2 2 3 3 3 2 2 2 3 4 4 4 4 4 4 3 3 3 2 2 3 4 5 5 5 5 5 4 4 4 4 4 4 4 4 4 4 4 4 3 1 1 2 3 3 4 4 3 3 4 4 4 4 4 4
3 3 3 2 2 2 2 2 2 2 2 2 2 2 2 2 2 2 2 2 2 2 2 2 2 2 2 2 1 1 1 1 1 2 2 3 3 2 1 2 3 4 4 4 4 4 4 4 3 3 3 3 4 5 5 5 5 5 4 3 3 3 4 4 4 3 3 3 3 3 1 1 1 2 3 4 4 4 3 3 4 4 4 4 4 4
4 4 4 3 3 2 2 2 2 2 2 2 2 2 2 2 3 3 2 2 2 2 2 2 2 2 2 2 2 2 2 2 1 1 2 2 2 2 2 1 2 2 3 4 4 4 5 5 5 5 4 4 5 5 5 5 5 4 4 3 3 3 4 4 4 3 3 3 3 2 1 1 2 3 3 4 4 4 4 4 3 4 4 4 4 4
4 4 4 4 3 3 3 3 3 3 3 3 2 2 1 2 3 3 2 2 2 2 2 2 2 2 2 2 2 2 2 2 2 2 2 1 1 1 1 1 1 1 2 3 3 4 4 5 6 7 6 6 6 6 6 5 5 4 4 3 3 4 4 4 4 3 3 3 3 3 2 2 3 3 2 3 4 5 5 4 4 4 4 4 4 5
4 4 4 4 4 4 4 3 3 4 4 3 3 2 1 1 1 1 2 2 2 2 2 3 3 3 2 2 2 2 2 2 2 1 2 1 1 1 1 1 1 1 1 2 2 2 3 4 5 7 9 9 9 8 6 6 5 4 4 4 4 4 4 4 4 3 3 3 3 3 2 2 2 2 2 3 4 5 5 5 4 4 4 4 4 4
4 4 4 4 4 4 4 4 4 4 4 4 3 3 2 1 1 1 1 2 2 2 2 2 3 3 3 3 2 2 2 2 2 2 2 1 1 1 1 1 1 1 1 1 2 2 2 2 3 4 6 10 12 11 7 6 5 4 4 4 3 3 3 4 4 4 4 3 3 2 2 2 2 2 2 2 3 4 5 5 4 4 3 3 3 4
Wind_Direction
113 120 113 108 111 117 126 124 124 124 126 114 53 359 348 358 9 23 32 57 68 60 20 339 331 337 347 2 20 37 46 46 47 49 49 48 46 43 40 36 35 35 36 38 40 41 42 41 41 42 44 45 47 49 49 49 48 45 44 41 38 36 34 31 29 27 25 24 22 20 18 15 11 5 359 351 341 333 325 320 318 316 313 308 303 296
108 101 84 78 89 101 108 112 120 128 140 146 144 358 352 1 2 4 10 39 57 61 27 335 334 344 349 348 7 35 48 52 55 55 55 51 48 46 44 40 39 38 38 40 42 44 45 41 41 43 46 51 54 55 55 52 49 46 42 38 36 33 30 27 25 22 19 17 15 12 9 5 0 355 348 341 335 330 325 324 324 324 323 319 313 306
133 118 109 84 89 99 118 119 122 128 138 146 147 124 50 30 9 359 6 8 12 14 11 354 355 359 348 338 354 28 53 64 68 66 63 59 57 54 52 50 49 47 45 43 48 54 59 55 54 53 56 59 60 58 56 51 46 42 37 33 29 25 22 19 16 13 10 7 4 1 357 353 348 344 339 335 331 328 325 324 324 324 324 321 318 314
138 134 141 105 93 102 138 155 149 129 120 111 104 93 79 69 27 350 356 354 355 355 357 2 12 20 5 342 342 360 61 77 78 74 72 71 70 69 70 73 76 80 86 85 85 85 87 82 78 75 69 64 60 56 50 44 38 33 27 22 18 14 10 7 4 0 357 354 351 347 344 340 336 333 331 329 327 324 322 319 318 318 317 316 315 314
141 137 140 116 101 104 171 143 118 102 89 82 76 69 62 58 22 351 352 358 360 358 358 7 17 25 22 355 341 347 56 84 85 79 78 78 80 86 93 98 109 119 128 118 107 99 96 92 87 82 67 56 48 41 32 26 20 15 11 7 3 0 357 354 352 349 346 343 339 335 332 329 326 324 322 321 320 318 315 313 312 312 311 310 309 308
155 130 113 109 113 120 98 50 73 82 79 66 57 53 56 50 33 18 9 9 7 2 358 5 16 24 25 3 349 351 29 73 83 82 76 76 81 87 94 95 100 102 99 88 82 79 79 74 65 47 22 4 354 349 344 343 345 348 350 351 350 348 346 345 343 341 338 335 331 328 325 322 319 317 315 313 312 310 308 307 306 306 306 305 303 302
147 88 66 73 82 87 71 48 61 76 94 74 45 31 31 38 40 36 26 17 9 1 356 1 11 19 21 5 357 357 11 35 52 57 51 55 57 60 62 62 59 53 47 44 42 39 33 18 359 340 328 322 319 315 313 318 323 330 337 340 341 341 340 339 338 336 333 330 327 324 320 317 314 311 309 307 305 304 303 302 301 301 300 300 298 297
137 106 74 71 68 61 45 33 38 55 93 108 91 46 17 14 18 22 20 18 15 11 9 9 10 10 6 360 357 359 7 18 21 18 16 16 14 12 15 15 10 3 350 343 336 331 327 324 320 316 313 312 311 310 310 315 322 328 334 337 338 338 337 336 335 333 330 327 324 320 317 314 311 308 305 303 301 300 298 298 297 296 296 296 295 294
138 134 125 116 107 102 84 27 8 16 48 96 116 119 105 28 7 5 11 14 15 18 25 29 20 2 345 347 353 359 3 15 22 23 19 6 1 3 4 4 357 344 326 317 309 305 303 306 310 312 314 317 319 320 322 327 331 334 334 335 334 334 333 332 330 328 326 323 320 317 314 312 309 306 304 301 299 297 295 294 294 293 293 293 292 292
122 125 127 112 102 112 125 128 358 356 19 65 92 110 122 114 81 38 23 6 3 8 26 38 36 6 339 342 351 359 1 8 26 39 36 29 28 29 24 19 8 352 336 327 317 308 300 307 315 324 334 339 341 343 344 344 342 338 331 328 326 325 325 324 323 322 321 318 316 314 312 311 309 306 304 300 298 295 293 292 292 292 292 291 291 290
106 105 107 94 65 56 88 115 94 10 23 53 59 59 65 84 108 120 122 17 344 351 6 19 30 25 352 343 346 353 1 5 14 21 24 25 27 29 29 25 18 9 359 352 344 335 324 330 340 351 359 359 357 354 352 348 340 331 321 317 315 314 315 315 316 315 315 314 313 312 312 311 310 308 305 302 298 295 292 291 291 291 291 291 290 289
116 109 102 101 86 64 56 63 46 33 37 54 54 39 13 8 81 127 138 152 184 338 347 351 359 12 9 337 338 344 357 6 4 359 0 9 13 15 17 16 13 10 5 3 359 355 353 360 5 11 16 10 2 353 346 338 327 316 308 305 304 304 306 308 309 310 311 310 310 310 311 311 310 309 307 303 299 296 293 291 290 290 290 290 289 289
104 106 99 94 91 89 87 79 64 50 45 83 121 151 209 286 83 115 122 134 150 310 332 340 338 332 316 319 334 344 354 1 353 344 348 358 1 2 2 2 0 359 359 359 355 353 357 6 12 16 23 15 1 346 334 322 311 302 297 295 295 298 301 304 306 307 308 308 308 308 308 307 307 306 305 304 302 300 297 295 293 292 291 290 289 289
95 92 89 88 88 95 110 114 123 135 169 172 173 175 183 179 103 91 92 76 12 326 352 25 357 329 317 323 337 353 7 8 3 358 355 348 346 348 354 350 342 340 355 350 337 331 341 358 4 7 12 8 354 336 317 307 299 293 289 290 291 295 299 303 305 306 307 306 306 305 304 303 303 302 302 304 304 304 303 302 300 298 297 296 294 293
119 114 111 122 138 158 159 140 145 159 188 191 174 148 107 70 63 71 87 77 5 345 22 31 10 342 320 315 325 359 33 49 38 20 350 325 315 320 3 346 331 329 352 338 312 303 320 344 345 335 338 331 314 299 294 288 286 286 286 288 291 295 300 303 305 307 306 305 303 302 301 300 300 300 301 303 305 305 305 304 303 302 302 300 299 298
127 121 130 148 168 191 200 164 156 160 175 179 151 123 112 104 85 84 103 115 86 31 47 46 22 347 320 313 329 22 50 66 63 42 351 313 303 307 62 19 338 324 326 311 290 286 302 310 302 290 289 284 286 289 294 290 288 289 289 292 294 296 300 303 306 307 306 304 302 300 299 298 298 299 301 303 303 303 302 301 301 301 301 301 300 300
121 121 131 144 167 200 216 177 161 156 150 141 119 106 113 125 123 114 111 116 98 74 72 87 85 340 305 310 321 352 57 81 80 66 3 304 297 303 48 78 315 297 302 291 277 271 279 283 282 276 269 273 280 289 298 297 295 293 292 293 294 296 299 304 307 308 307 304 301 299 298 298 299 300 301 302 301 301 299 298 297 296 296 297 297 297
128 134 134 144 163 183 185 178 172 160 135 125 111 93 77 83 95 104 106 110 109 107 108 118 140 170 204 269 284 295 44 97 92 73 1 294 292 307 7 61 161 260 285 280 273 265 259 261 264 271 276 282 288 295 302 301 299 295 293 292 293 296 300 306 309 309 307 303 301 300 300 301 301 301 301 300 300 299 297 296 294 292 291 290 291 292
149 152 147 156 163 168 170 181 176 165 151 149 137 120 85 62 63 77 89 104 121 133 138 146 165 184 190 227 251 265 166 110 100 85 340 282 284 308 354 16 19 292 281 273 268 264 262 266 273 279 284 289 294 298 302 301 298 294 291 291 293 298 305 311 312 310 306 303 302 304 305 306 305 303 301 300 298 296 294 292 289 286 287 285 285 287
159 172 173 160 150 147 173 203 195 181 168 156 139 123 116 101 80 74 86 101 116 130 136 148 175 200 209 236 253 262 187 103 93 84 276 271 277 292 338 11 20 325 293 276 269 265 269 278 284 287 288 290 294 298 301 300 298 294 291 292 297 305 312 314 313 309 304 303 304 307 311 311 311 310 310 308 307 304 301 296 294 292 290 286 284 284
158 189 205 169 149 146 176 202 201 187 163 140 123 114 120 115 108 104 121 118 118 117 119 151 187 205 203 227 245 250 174 116 105 98 281 289 287 289 313 22 50 4 298 282 277 276 284 284 283 283 283 289 294 298 300 299 296 293 293 296 304 311 314 313 309 304 300 301 303 307 309 308 309 310 312 313 314 313 311 310 309 308 305 300 294 288
156 185 204 179 161 155 168 179 180 170 152 135 129 130 138 135 138 148 163 152 151 158 171 196 206 208 197 224 241 242 166 138 136 137 116 317 295 289 302 16 64 40 279 274 279 288 297 287 279 278 283 294 300 302 302 298 295 293 295 302 308 311 310 307 303 300 299 300 301 302 301 301 301 303 305 307 309 310 311 312 313 313 315 310 305 299
143 161 175 178 177 169 154 150 152 154 150 142 144 150 157 152 156 163 172 167 167 171 182 200 218 236 245 254 266 275 182 152 138 129 116 193 274 279 301 352 41 348 264 266 277 296 311 294 283 283 295 307 310 310 306 299 295 294 300 307 310 309 307 304 303 301 300 300 299 297 295 295 295 296 298 299 300 301 301 302 303 304 305 306 306 304
124 138 153 170 180 174 141 135 140 147 149 134 128 129 135 134 136 140 148 146 144 140 127 69 20 357 329 306 300 302 295 219 122 119 119 178 248 267 291 352 14 302 268 264 276 303 318 302 293 292 306 319 321 319 314 306 301 304 315 315 315 315 313 311 309 307 305 302 300 298 296 296 296 296 296 295 295 295 293 294 293 294 294 295 297 299
121 132 146 160 166 162 145 142 145 148 142 122 108 104 105 103 98 93 86 86 87 84 72 50 30 0 333 329 319 305 289 297 122 125 127 167 247 271 283 326 42 265 271 275 287 311 322 305 302 305 317 328 333 334 331 329 333 341 343 335 330 326 323 320 317 313 309 306 304 302 301 301 301 300 300 299 298 295 293 291 290 289 288 289 290 292
129 137 145 151 153 150 145 145 146 147 143 133 125 120 114 105 95 84 69 64 68 74 69 54 26 332 316 322 310 297 287 290 147 136 134 142 228 280 286 275 168 249 278 287 299 321 331 309 308 313 322 327 337 345 358 9 15 11 0 349 341 335 330 324 320 316 311 308 306 305 305 306 306 306 306 305 303 300 297 293 290 288 286 286 286 288
132 138 143 146 148 148 148 149 150 149 147 143 141 138 129 114 102 93 84 95 96 94 91 84 20 306 312 311 294 282 283 282 217 156 136 124 139 271 280 280 217 261 281 289 294 305 321 312 311 312 315 314 325 344 11 20 21 15 6 355 346 338 332 325 320 315 312 309 307 307 308 309 310 310 310 308 306 304 301 297 293 289 287 285 285 288
121 130 136 142 147 151 154 157 159 160 158 154 151 148 139 124 120 134 186 180 134 110 112 134 168 231 280 280 279 279 288 282 245 181 135 113 134 250 266 280 302 278 281 291 298 308 327 313 303 299 302 303 313 336 3 14 16 14 5 356 348 341 334 328 323 318 315 313 311 311 312 312 312 312 311 310 308 305 303 300 296 293 289 287 288 297
68 79 87 93 94 95 101 131 165 175 175 171 167 162 152 140 146 166 187 163 135 121 131 156 172 186 215 260 285 296 297 283 258 187 127 111 161 253 267 302 338 346 329 324 327 331 335 315 295 289 293 305 315 328 339 358 7 9 2 354 349 345 341 337 333 330 326 323 321 319 318 317 316 314 313 311 308 306 304 302 299 296 293 292 290 295
30 33 33 30 27 24 21 14 2 336 229 203 190 179 163 152 155 162 161 147 137 138 154 168 173 173 170 310 329 319 301 286 264 179 126 124 187 262 287 327 337 345 45 36 9 344 328 313 300 288 292 310 316 318 316 334 348 359 359 351 347 345 346 348 347 344 340 335 331 327 324 321 319 316 314 312 310 307 305 303 300 298 297 295 275 260
22 23 19 12 9 9 12 15 11 2 349 337 346 76 127 137 144 147 143 144 145 149 158 167 170 165 149 124 83 301 286 281 262 166 126 131 181 244 256 330 326 325 59 95 82 8 315 308 307 309 319 321 316 308 302 311 332 355 0 351 343 339 343 350 351 349 345 339 335 330 327 324 322 319 317 314 311 308 306 304 302 301 312 207 218 246
31 28 18 0 356 360 9 13 13 11 7 12 22 36 62 112 136 144 147 152 152 151 153 162 166 165 159 161 174 208 249 263 246 190 133 129 147 206 153 122 25 342 342 101 120 137 220 286 301 312 329 324 315 307 301 307 336 13 13 359 333 323 332 342 346 345 340 337 334 331 328 327 325 323 321 317 314 311 308 305 303 301 308 175 195 223
45 33 17 4 2 6 12 13 12 9 5 6 8 16 38 99 146 155 158 160 157 152 148 154 159 166 171 180 197 219 246 258 241 207 153 130 127 147 130 111 87 33 357 39 91 126 161 230 282 304 318 314 311 308 307 314 345 36 42 10 316 306 317 330 335 334 327 327 327 326 326 327 327 326 324 322 318 314 310 307 303 299 286 198 191 210
47 32 19 10 7 6 6 9 7 2 349 334 322 315 350 196 179 176 175 171 166 160 155 156 159 164 169 186 216 242 261 261 246 217 148 127 126 138 135 130 128 117 66 42 47 65 130 240 272 300 310 308 305 302 300 304 324 5 50 224 264 283 296 313 318 317 314 317 317 317 318 321 323 324 325 323 320 316 313 309 304 300 298 266 225 212
42 28 18 12 8 3 357 355 351 341 321 298 278 256 216 202 198 196 192 189 184 176 168 165 163 164 165 174 195 226 251 254 239 204 145 132 130 132 135 167 166 149 119 104 84 62 328 275 263 269 303 307 306 300 290 286 294 301 269 229 233 248 264 277 291 301 307 311 308 303 304 309 313 317 318 319 318 317 316 313 310 306 305 296 285 262
39 17 3 7 5 357 342 333 326 314 298 280 264 246 221 207 202 201 200 199 199 198 193 184 176 170 167 172 182 200 226 234 221 191 158 143 133 130 140 184 176 155 134 136 137 142 212 279 272 269 286 295 297 297 294 292 298 301 283 255 248 251 254 254 257 274 298 302 299 297 298 301 303 305 307 315 318 320 321 319 316 313 310 305 300 292
38 353 325 338 345 331 305 300 292 282 274 271 267 260 235 218 210 205 200 198 202 206 210 211 208 201 193 183 186 197 211 209 200 184 169 149 136 132 148 180 178 164 151 153 157 164 159 285 293 290 278 263 264 276 291 305 318 321 301 277 267 265 267 266 251 225 250 274 281 286 290 294 298 303 306 315 320 324 324 321 319 317 315 312 308 303
21 313 291 279 248 228 243 258 256 250 248 260 272 276 254 227 212 204 189 175 179 192 205 215 228 236 234 228 219 212 205 185 180 180 174 153 139 136 151 164 182 184 175 165 160 159 162 235 275 280 274 257 255 261 279 300 311 310 294 280 269 265 269 275 262 232 233 262 277 286 291 296 304 311 312 320 327 331 327 321 319 318 320 319 315 310
287 274 271 254 230 212 214 228 234 235 235 250 263 265 247 206 171 145 130 133 142 159 187 204 228 246 255 256 250 241 224 194 183 181 177 165 153 150 157 167 186 197 194 174 160 158 170 197 221 240 259 272 276 278 282 290 295 298 299 301 299 290 274 264 249 239 237 261 283 293 300 309 319 322 312 319 329 332 324 315 313 315 324 329 322 315
229 243 252 241 223 209 211 223 229 232 230 257 285 316 9 45 55 60 63 84 94 101 117 161 241 268 277 278 269 258 242 208 188 180 177 179 174 168 167 177 185 188 184 177 168 166 173 192 209 225 242 268 283 290 291 289 289 298 310 315 314 307 295 279 259 243 236 250 273 287 297 305 309 308 303 305 304 302 297 294 296 299 308 313 316 314
217 233 244 240 229 218 218 226 230 226 183 12 17 17 14 26 36 37 33 34 37 40 43 40 17 349 331 314 294 275 256 230 204 190 182 187 187 184 182 187 185 177 168 172 177 180 182 197 220 241 252 263 273 279 281 281 287 293 299 297 293 291 294 293 289 278 264 261 258 261 274 292 300 302 300 298 289 278 270 268 272 276 280 252 218 216
221 228 232 229 225 223 231 245 236 93 84 63 50 37 357 58 72 62 40 12 356 355 14 31 24 3 340 327 317 304 280 252 226 209 198 194 192 192 194 197 191 180 168 175 190 204 209 217 230 241 249 256 267 274 277 278 281 283 283 284 293 301 302 298 303 329 328 281 267 259 260 281 290 294 294 292 287 279 272 263 263 266 267 244 211 198
223 225 222 211 203 192 176 109 83 85 77 61 32 252 228 169 135 123 116 124 294 318 10 43 57 49 339 318 315 313 308 291 262 234 215 205 200 199 202 204 199 190 183 191 205 216 220 226 232 238 242 246 255 265 272 276 277 275 272 275 288 301 304 298 297 296 258 257 254 253 257 267 273 276 280 280 279 277 275 271 269 268 266 252 231 219
219 220 212 194 171 150 134 156 165 161 147 181 219 233 229 188 153 141 134 161 197 217 70 76 83 85 73 300 301 306 310 314 309 285 235 212 205 202 207 208 205 201 200 208 214 219 221 228 232 233 231 235 247 256 263 268 269 268 264 263 261 258 254 269 285 298 298 288 281 274 266 269 275 280 283 278 274 271 270 269 269 269 267 256 243 234
198 197 181 166 156 158 178 190 186 175 174 198 215 222 209 188 170 158 150 161 173 172 138 112 95 79 17 290 289 299 310 320 325 324 309 257 229 217 206 202 203 210 215 219 219 219 219 229 232 229 219 227 238 247 255 261 265 266 262 256 253 250 246 256 271 285 292 293 291 287 282 284 295 299 295 286 278 270 262 262 265 268 268 261 251 244
182 186 186 176 176 185 197 189 177 170 184 213 222 218 194 176 169 165 162 161 161 161 155 130 125 136 216 251 271 295 312 320 324 325 325 318 309 279 215 202 203 209 218 224 225 223 220 222 224 222 220 231 238 242 245 251 258 263 263 256 253 253 256 261 264 266 269 277 281 283 286 307 318 301 290 288 285 280 265 253 250 253 260 259 255 250
200 202 202 196 195 197 200 183 172 172 198 220 223 214 184 163 158 160 162 160 156 149 141 129 138 162 194 207 209 206 221 269 291 302 310 311 313 311 289 226 213 212 216 223 227 229 229 225 220 218 222 237 246 249 246 246 250 255 259 254 252 254 260 261 259 254 250 256 265 272 289 332 318 295 286 290 291 288 277 259 246 241 245 249 250 249
209 210 209 204 202 203 204 189 182 187 207 223 227 217 187 173 170 169 161 159 154 146 138 137 153 179 201 207 204 198 194 205 221 243 265 279 289 295 296 267 230 220 220 226 230 233 235 232 226 221 222 233 245 254 255 249 248 249 250 249 252 257 262 262 259 252 242 244 246 246 243 257 268 274 285 293 294 291 285 275 260 247 241 241 242 244
209 211 211 206 206 209 214 204 198 200 211 221 227 225 206 199 195 189 166 158 155 152 153 164 174 190 208 217 215 208 201 200 202 207 217 231 250 269 288 289 269 242 234 234 234 235 238 236 230 225 223 227 237 248 255 253 251 250 250 249 251 257 263 265 264 258 248 243 237 228 215 224 231 239 258 279 285 286 287 283 273 258 244 237 236 237
211 212 210 207 210 215 219 212 209 210 218 221 224 224 214 205 192 177 155 151 154 161 169 177 184 195 213 220 218 213 206 206 207 207 206 203 213 229 245 258 265 262 257 247 241 239 240 241 235 230 225 224 227 235 246 249 250 250 250 248 248 251 259 265 266 262 255 249 239 227 218 225 224 221 223 255 272 280 284 282 276 264 248 239 236 237
215 213 210 210 215 219 221 216 214 216 221 222 222 220 212 195 171 150 137 151 165 176 185 183 188 198 215 223 224 219 211 205 209 215 213 198 198 209 224 230 239 251 262 264 261 257 256 260 260 252 239 228 224 223 233 238 242 246 249 246 242 241 248 256 261 261 260 253 243 228 220 229 231 229 222 240 262 275 281 280 276 268 256 247 244 246